Regional Weather Roundup
Issued by NWS

Home | Current Version | Previous Version | Text Only | Print | Product List | Glossary On
Versions: 1 2 3 4 5 6 7 8 9 10 11 12 13 14 15 16 17 18 19 20 21 22 23 24 25 26 27 28 29 30 31 32 33 34 35 36 37 38 39 40 41 42 43 44 45 46 47 48 49 50
000
ASUS43 KDMX 260606
RWRIA

WEATHER ROUNDUP FOR IOWA
NATIONAL WEATHER SERVICE DES MOINES IA
100 AM CDT WED APR 26 2017

NOTE: "FAIR" INDICATES FEW OR NO CLOUDS BELOW 12,000 FEET WITH NO
SIGNIFICANT WEATHER AND/OR OBSTRUCTIONS TO VISIBILITY.

* - THESE STATIONS ARE NOT NWS STATIONS...THUS NOT UNDER NWS
QUALITY CONTROL.  THEY ALSO DO NOT REPORT WEATHER SUCH
AS PRECIPITATION OR FOG.

IAZ001>003-012>014-020>022-031>034-043>046-260700-
   NORTHWEST IOWA

CITY           SKY/WX    TMP DP  RH WIND       PRES   REMARKS
CARROLL *      CLOUDY    43  43 100 NW17G25   29.51F
CHEROKEE *     CLOUDY    39  39 100 N12G21    29.56F WCI  32
DENISON *      CLOUDY    39  39 100 NW12G22   29.58R WCI  32
LE MARS *      CLOUDY    39  37  93 NW14G23   29.62F WCI  31
ORANGE CITY *  CLOUDY    37  37 100 NW14G22   29.59F WCI  29
SHELDON *      CLOUDY    39  37  93 NW17G24   29.56F WCI  30
SIOUX CITY     CLOUDY    38  37  97 NW23G30   29.62S WCI  27
6HR MIN TEMP:  38; 6HR MAX TEMP:  42; 6HR PCP:  0.02;

SPENCER        LGT RAIN  41  39  93 N20G29    29.54F
6HR MIN TEMP:  41; 6HR MAX TEMP:  43; 6HR PCP:  0.16;

STORM LAKE *   RAIN      39  39 100 NW18      29.53F WCI  30
$$

IAZ055>058-069>071-079>083-090>094-260700-
   SOUTHWEST IOWA

CITY           SKY/WX    TMP DP  RH WIND       PRES   REMARKS
ATLANTIC *     CLOUDY    43  41  93 NW12G22   29.53F
AUDUBON *      CLOUDY    43  39  87 NW9       29.53F
CLARINDA *     CLOUDY    46  43  87 N14G20    29.57S
COUNCIL BLFS * CLOUDY    41  41 100 NW16G29   29.56F
CRESTON *      CLOUDY    45  45 100 NW10G17   29.53R
HARLAN  *      CLOUDY    41  41 100 NW21G31   29.57F
LAMONI         TSTM      48  46  93 NW13      29.48S FOG
6HR MIN TEMP:  47; 6HR MAX TEMP:  67; 6HR PCP:  0.33;

RED OAK *      CLOUDY    45  41  87 NW15G22   29.55S
SHENANDOAH *   CLOUDY    45  41  87 NW17      29.58R
$$

IAZ047>049-059>061-072>074-084-260700-
   CENTRAL IOWA

CITY           SKY/WX    TMP DP  RH WIND       PRES   REMARKS
AMES           CLOUDY    49  47  93 NW8       29.48S
6HR MIN TEMP:  49; 6HR MAX TEMP:  68; 6HR PCP: TRACE;

ANKENY *       CLOUDY    48  45  87 NW9       29.50S
BOONE *        CLOUDY    46  46 100 NW12      29.47F
CHARITON *     LGT RAIN  48  46  93 NW15      29.46F
DES MOINES     DRIZZLE   49  45  86 NW9       29.50S
6HR MIN TEMP:  49; 6HR MAX TEMP:  70; 6HR PCP: TRACE;

GRINNELL*      CLOUDY    54  49  83 W13       29.46S
KNOXVILLE *    LGT RAIN  50  46  87 NW15      29.46R
MARSHALLTOWN   MOCLDY    55  52  89 W9        29.44R
6HR MIN TEMP:  54; 6HR MAX TEMP:  69;

NEWTON *       CLOUDY    52  46  82 W14       29.47R
PELLA *        RAIN      52  48  86 W10       29.50R
PERRY *        CLOUDY    46  43  90 NW16G24   29.50F
$$

IAZ004>006-015-016-023>025-035-036-260700-
   NORTH CENTRAL IOWA

CITY           SKY/WX    TMP DP  RH WIND       PRES   REMARKS
ALGONA *       LGT RAIN  45  45 100 NW17      29.49F
CLARION *      CLOUDY    46  46 100 NW15      29.48S
ESTHERVILLE    LGT RAIN  41  41 100 NW18      29.52F FOG
6HR MIN TEMP:  41; 6HR MAX TEMP:  43; 6HR PCP:  0.27;

FORT DODGE *   CLOUDY    45  39  81 NW7       29.51S
MASON CITY     CLOUDY    53  51  93 W7        29.47F FOG
6HR MIN TEMP:  51; 6HR MAX TEMP:  54; 6HR PCP:  0.19;

FOREST CITY *  RAIN      46  46 100 NW9       29.47S
WEBSTER CITY * CLOUDY    46  45  93 NW18      29.46F
IOWA FALLS *   MOCLDY    51  49  93 NW12      29.46F
$$

IAZ007>011-017>019-026>030-037>042-050>054-066-260700-
   NORTHEAST IOWA

CITY           SKY/WX    TMP DP  RH WIND       PRES   REMARKS
CEDAR RAPIDS   CLOUDY    57  57 100 E5        29.41F
6HR MIN TEMP:  57; 6HR MAX TEMP:  72; 6HR PCP:  0.01;

CLINTON *      CLOUDY    68  51  54 S12       29.44F
DECORAH *      CLOUDY    59  55  88 SE7       29.43F
DUBUQUE        CLOUDY    61  54  77 SE5       29.45F
6HR MIN TEMP:  60; 6HR MAX TEMP:  71; 6HR PCP:  0.01;

MONTICELLO *   CLOUDY    59  55  88 CALM      29.43S
OELWEIN *      CLOUDY    59  57  94 SE6       29.42F
WATERLOO       CLOUDY    60  54  80 S3        29.41F
6HR MIN TEMP:  60; 6HR MAX TEMP:  70; 6HR PCP: TRACE;

$$

IAZ064-065-067-068-078-260700-
   EAST CENTRAL IOWA

CITY           SKY/WX    TMP DP  RH WIND       PRES   REMARKS
DAVENPORT      CLOUDY    70  49  47 S18G28    29.44S
6HR MIN TEMP:  67; 6HR MAX TEMP:  76; 6HR PCP: TRACE;

IOWA CITY      CLOUDY    64  54  69 SE3       29.43S
6HR MIN TEMP:  61; 6HR MAX TEMP:  74; 6HR PCP: TRACE;

MT. PLEASANT * LGT RAIN  60  57  89 SE6       29.45F
MUSCATINE *    DRIZZLE   63  55  77 SW7       29.46R
QUAD CITIES    MOCLDY    72  48  42 S15G25    29.43S
6HR MIN TEMP:  69; 6HR MAX TEMP:  75; 6HR PCP: TRACE;

$$

IAZ062-063-075>077-085>089-095>099-260700-
   SOUTHEAST IOWA

CITY           SKY/WX    TMP DP  RH WIND       PRES   REMARKS
BURLINGTON     CLOUDY    70  52  52 S12       29.45R
6HR MIN TEMP:  69; 6HR MAX TEMP:  74;

FAIRFIELD *    CLOUDY    64  54  68 S5G13     29.44R
FORT MADISON * LGT RAIN  66  55  68 CALM      29.47R
KEOKUK *       CLOUDY    64  59  82 W5        29.45S
OSKALOOSA *      N/A     56  53  88 W13       29.46R
CENTERVILLE *    N/A     54  50  87 NW12      29.46F
OTTUMWA        CLOUDY    58  54  86 W13       29.45R
6HR MIN TEMP:  58; 6HR MAX TEMP:  73; 6HR PCP:  0.01;

WASHINGTON *   CLOUDY    63  57  82 S12G17    29.45S
$$

ABBREVIATIONS USED IN REMARKS
   TC - TEMPERATURES IN CELSIUS
  WCI - WIND CHILL INDEX
   HX - HEAT INDEX
  VSB - VISIBILITY
$$




USA.gov is the U.S. government's official web portal to all federal, state and local government web resources and services.